PDT,Max TemperatureF,Mean TemperatureF,Min TemperatureF,Max Dew PointF,MeanDew PointF,Min DewpointF,Max Humidity, Mean Humidity, Min Humidity, Max Sea Level PressureIn, Mean Sea Level PressureIn, Min Sea Level PressureIn, Max VisibilityMiles, Mean VisibilityMiles, Min VisibilityMiles, Max Wind SpeedMPH, Mean Wind SpeedMPH, Max Gust SpeedMPH,PrecipitationIn, CloudCover, Events, WindDirDegrees
2013-6-1,76,61,46,46,40,36,76,51,25,30.21,30.09,29.95,10,10,10,23,7,32,0.00,3,,346
2013-6-2,74,61,48,48,43,39,77,54,31,29.99,29.94,29.89,10,10,10,23,12,32,0.00,1,,346
2013-6-3,76,59,41,46,43,38,83,57,31,30.05,30.00,29.96,10,10,10,22,7,26,0.00,0,,315
2013-6-4,81,63,45,47,43,38,82,52,21,30.15,30.07,29.98,10,10,10,10,5,15,0.00,0,,248
2013-6-5,87,69,51,50,46,43,77,50,23,30.01,29.95,29.86,10,10,10,16,6,20,0.00,0,,242
2013-6-6,87,72,56,46,42,35,55,37,18,29.99,29.91,29.82,10,10,10,14,8,17,0.00,0,,291
2013-6-7,83,70,56,51,39,21,63,38,12,29.94,29.85,29.80,10,10,10,22,7,29,0.00,2,,294
2013-6-8,84,66,48,41,38,33,59,38,17,30.03,29.93,29.85,10,10,10,17,8,24,0.00,0,,288
2013-6-9,78,64,49,42,36,31,61,40,18,29.94,29.88,29.79,10,10,10,16,8,21,0.00,0,,342
2013-6-10,79,66,53,43,38,32,51,35,19,29.88,29.80,29.70,10,10,10,18,9,24,0.00,0,,347
2013-6-11,76,60,43,42,39,34,76,50,23,29.95,29.81,29.74,10,10,10,22,9,29,0.00,1,,171
2013-6-12,74,61,48,39,35,30,61,41,20,30.03,29.99,29.94,10,10,10,23,8,31,0.00,2,,324
2013-6-13,75,61,46,48,39,30,86,53,20,30.07,30.02,29.99,10,10,10,22,9,29,0.05,1,Rain-Thunderstorm,320
2013-6-14,77,60,43,44,40,36,92,58,23,30.11,30.05,29.97,10,10,10,15,4,20,0.00,2,,206
2013-6-15,81,63,45,44,39,34,83,51,19,30.04,29.98,29.92,10,10,10,14,6,17,0.00,0,,305
2013-6-16,88,69,50,48,41,36,61,39,16,30.03,29.96,29.88,10,10,10,18,8,24,0.00,0,,314
2013-6-17,84,72,60,53,47,39,72,47,22,29.99,29.89,29.78,10,10,10,22,10,26,0.02,2,Rain,131
2013-6-18,70,63,55,52,50,45,77,59,40,29.90,29.86,29.82,10,10,10,17,6,22,T,5,,187
2013-6-19,62,58,53,52,50,48,89,77,64,29.86,29.81,29.75,10,10,8,14,5,18,0.03,8,Rain,336
2013-6-20,60,56,52,52,51,48,96,82,67,30.02,29.87,29.77,10,9,6,14,6,17,0.54,8,Rain,145
2013-6-21,67,60,52,52,50,48,96,74,52,30.09,30.07,30.03,10,10,10,9,4,12,0.00,8,,169
2013-6-22,77,63,48,55,49,46,93,66,38,30.07,30.00,29.89,10,10,10,20,7,23,0.00,3,,221
2013-6-23,78,67,56,55,52,48,86,61,36,29.91,29.75,29.60,10,10,10,10,4,15,0.02,4,Rain,258
2013-6-24,67,62,57,60,56,52,90,79,67,29.69,29.62,29.59,10,8,0,17,5,23,0.96,8,Fog-Rain,184
2013-6-25,72,65,58,54,52,46,86,64,41,29.82,29.75,29.69,10,10,10,18,8,24,T,7,,187
2013-6-26,76,63,50,53,50,47,89,64,38,30.06,29.95,29.83,10,10,10,17,7,23,0.00,3,,197
2013-6-27,76,66,55,58,53,47,86,66,46,30.20,30.16,30.08,10,10,10,13,4,16,0.03,3,Rain,213
2013-6-28,88,75,61,61,57,53,84,59,34,30.23,30.14,30.04,10,10,10,12,5,16,0.00,1,,307
2013-6-29,88,75,62,65,60,57,78,59,39,30.13,30.04,29.97,10,9,2,18,9,23,0.10,2,Rain-Thunderstorm,343
2013-6-30,93,78,63,62,58,52,84,55,26,30.05,29.99,29.92,10,10,10,14,7,17,0.00,0,,323